Orbital elements:
2008 TC3                                                 Earth MOID = 0.0000 AU
Epoch 2008 Oct. 6.0 TT = JDT 2454745.5                  MPC
M 328.47711              (2000.0)            P               Q
n   0.68820104     Peri.  233.95132     +0.37340991     -0.92761343
a   1.2705522      Node   194.13268     +0.86364725     +0.35152344
e   0.2852111      Incl.    2.32793     +0.33864208     +0.12635110
P   1.43           H   30.4           G   0.15           U   4
Residuals in seconds of arc
081006 G96  0.3+  0.1-    081006 A77  1.0+  0.1+    081006 J47  0.3+  0.2+
081006 G96  0.1-  0.2-    081006 J47  0.1+  0.0-    081006 J47  0.3+  0.1+
081006 G96  0.4-  0.4-    081006 A77  2.2+  0.2+    081006 J75  0.2+  0.2-
081006 G96  0.0-  0.2-    081006 A77  1.8+  0.7+    081006 213  0.4-  0.3-
081006 G96  0.0-  0.2-    081006 J47  0.2-  0.0-    081006 J47  0.1+  0.1-
081006 G96  0.1-  0.2-    081006 A77  0.5+  0.3+    081006 J47  0.5+  0.1+
081006 854  1.1-  0.9+    081006 213  0.5-  0.2-    081006 J47  0.1+  0.1+
081006 G96  0.1-  0.2-    081006 J53  0.3-  0.1-    081006 J47  0.1-  0.0-
081006 854  0.1-  0.3-    081006 A77  0.1-  0.3+    081006 J47  0.3+  0.1+
081006 854  0.3-  1.0+    081006 J53  0.1+  0.1+    081006 143  0.7+  0.3-
081006 G96  0.1-  0.0-    081006 J47  0.1-  0.2+    081006 213  0.1-  0.3-
081006 G96  0.2+  0.1-    081006 A77  1.6-  0.0-    081006 J47  0.2-  0.0-
081006 G96  0.4+  0.2-    081006 A77  0.9-  0.0+    081006 J47  0.0-  0.0+
081006 G96  0.3+  0.2-    081006 A77  0.9-  0.1+    081006 J47  0.3+  0.0-
081006 G96  0.4+  0.2-    081006 213  0.3-  0.3-    081006 J47  0.4+  0.0+
081006 D90  0.0+  0.4-    081006 A77  0.1+  0.2+    081006 J95  0.8-  0.0-
081006 D90  0.0-  0.1-    081006 A77  1.5+  0.3+    081006 J47  0.6-  0.3-
081006 D90  0.8-  0.4+    081006 213  0.3-  0.1-    081006 213  1.2-  0.4-
081006 E12  0.1-  0.6-    081006 A77  1.5+  0.6+    081006 143  0.3+  0.2-
081006 E12  0.0+  0.4-    081006 A77  0.9+  0.3+    081006 J47  0.1-  0.1+
081006 E12  0.0+  0.3-    081006 J47  0.0-  0.2+    081006 114 (4.6-  1.5+)
081006 E12  0.4+  0.3+    081006 J47  0.3-  0.0-    081006 J47  0.1-  0.1+
081006 E12  1.1+  0.2-    081006 A77  0.9+  0.4+    081006 213  0.9-  0.0-
081006 E12  0.0-  0.9-    081006 J51  0.8-  0.5-    081006 J47  0.2+  0.0+
081006 E12  0.7-  0.6-    081006 A77  0.1-  0.2+    081006 114 (8.8-  2.0+)
081006 E12  0.1+  0.8-    081006 J51  0.0-  0.1-    081006 J47  0.3+  0.1+
081006 114  0.4+  0.4+    081006 J47  0.1-  0.2+    081006 J47  0.1-  0.2+
081006 114  0.1-  0.3+    081006 J51  0.3+  0.1-    081006 114 (2.8+  0.9+)
081006 114  0.1+  0.8+    081006 J47  0.1-  0.0-    081006 J47  0.0-  0.1-
081006 114  0.5+  0.7+    081006 J47  0.1+  0.5+    081006 473  0.2+  0.2-
081006 114  0.9-  0.4+    081006 J47  0.1+  0.1+    081006 J47  0.2-  0.1-
081006 114  0.4+  0.4+    081006 J47  0.2+  0.0+    081006 J47  0.1+  0.0+
081006 114  0.5+  0.6+    081006 213  0.4-  0.0-    081006 114 (3.4+  0.9+)
081006 114  0.4+  0.3+    081006 J47  0.5+  0.1-    081006 213  0.5-  0.3-
081006 114  0.6+  0.6+    081006 J95  0.3-  0.5-    081006 J47  0.3-  0.1-
081006 106  0.1-  0.5-    081006 J47  0.5-  0.1-    081006 J47  0.0-  0.0-
081006 106  1.9-  0.2+    081006 213  0.3-  0.1-    081006 952  0.3+  1.8-
081006 114  0.3+  0.8+    081006 J47  0.0+  0.1-    081006 J47  0.6-  0.0+
081006 106  1.8-  1.3-    081006 J47  0.0+  0.0+    081006 J47  0.2-  0.1-
081006 114  0.2+  0.4+    081006 213  0.1-  0.0-    081006 213  0.1-  0.2-
081006 114  0.5+  0.3+    081006 J75  0.9+  0.0-    081006 473  0.1-  0.1+
081006 114  0.6+  0.4+    081006 J95  0.4-  0.2-    081006 J95  0.7-  0.0-
081006 114  0.0-  0.2+    081006 J47  0.4+  0.5+    081006 473  0.2-  0.4-
081006 143  0.5-  0.1-    081006 952  0.4+  1.3-    081006 213  0.8-  0.1-
081006 143  0.0-  0.2-    081006 213  0.4-  0.3-    081006 952  1.5-  0.4+
081006 143  0.1+  0.2-    081006 J47  0.2-  0.2+    081006 213  0.8-  0.1+
081006 143  0.3-  0.1-    081006 J47  0.1+  0.2+    081006 J47  0.1+  0.0+
081006 595  0.4-  0.3+    081006 J95  0.4-  0.3-    081006 952  1.1-  1.3-
081006 143  0.1-  0.2-    081006 952  0.1+  1.3-    081006 J47  0.3-  0.1+
081006 620  0.1-  0.3+    081006 473  0.1-  0.2-    081006 J47  0.4-  0.1-
081006 A77 (4.7-  0.7+)   081006 952  0.5+  0.8-    081006 J47  0.6+  0.0-
081006 A77  2.3-  0.2-    081006 A77  0.7+  0.5+    081006 J47  0.1-  0.0+
081006 595  0.0+  0.9+    081006 A77  0.2+  0.2+    081006 J47  0.6+  0.2+
081006 595  0.4-  0.5+    081006 143  0.2+  0.4-    081006 J47  0.4+  0.0+
081006 143  0.1-  0.1-    081006 A77  1.0+  0.4+    081006 J95  0.6-  0.1-
081006 A77  2.2-  0.2-    081006 J95  0.4-  0.3-    081006 J47  0.2-  0.1+
081006 620  0.0+  0.0+    081006 473  0.1+  0.1-    081006 J95  0.7-  0.0-
081006 620  0.5+  0.1-    081006 A77  0.3-  0.2+    081006 J47  0.4+  0.1+
081006 620  1.0-  0.2-    081006 A77  0.4+  0.3+    081006 213  0.1-  0.5-
081006 143  0.0+  0.0-    081006 A77  0.0-  0.5+    081006 J47  0.2+  0.0+
081006 J95  0.3-  0.1-    081006 143  0.3+  0.4-    081006 J47  0.5+  0.1+
081006 J95  0.3-  0.3-    081006 213  0.4-  0.7-    081006 213  0.4-  0.1-
081006 J95  0.0+  0.0-    081006 A77  0.3-  0.4+    081006 J47  0.4+  0.1+
081006 143  0.0+  0.1-    081006 A77  0.4-  0.3+    081006 J47  0.5+  0.1+
081006 J95  0.2-  0.3-    081006 473  0.3+  0.1-    081006 J47  0.6+  0.3+
081006 204  0.2-  0.2-    081006 A77  1.0+  0.3+    081006 J47  0.0+  0.1-
081006 J95  0.2+  0.0+    081006 A77  0.2-  0.6+    081006 J47  0.7+  0.1+
081006 204  0.2-  0.3-    081006 A77  0.2+  0.3+    081006 213  1.2-  0.1+
081006 204  0.0+  0.2-    081006 143  0.4+  0.3-    081006 J47  0.3-  0.1-
081006 204  0.1+  0.2-    081006 A77  0.1-  0.5+    081006 473  0.1-  0.1+
081006 204  0.1-  0.0-    081006 A77  0.6-  0.3+    081006 J47  0.2+  0.2-
081006 204  0.4-  0.2-    081006 J75  0.5+  0.0+    081006 A77  0.2-  0.2+
081006 620  0.5-  0.1-    081006 J75  0.0-  0.1-    081006 A77  0.1+  0.1+
081006 143  0.0-  0.1-    081006 473  0.0+  0.4-    081006 A77  0.1-  0.5+
081006 620  0.3+  0.1-    081006 213  0.5-  0.1-    081006 J47  0.4+  0.0-
081006 204  0.3-  0.2-    081006 J47  0.1-  0.0+    081006 A77  0.0+  0.8+
081006 204  0.2-  0.2-    081006 A86  1.9+  0.6+    081006 A77  0.7-  0.4+
081006 204  0.5-  0.0-    081006 A86  1.8+  0.2+    081006 213  1.6-  0.2-
081006 204  0.2-  0.1-    081006 J47  0.3-  0.1+    081006 J47  0.4-  0.2-
081006 204  0.4-  0.0-    081006 213  0.9-  0.2-    081006 A77  0.4+  0.4+
081006 620  0.3+  0.0-    081006 J47  0.2+  0.1-    081006 A77  0.8+  0.4+
081006 143  0.0+  0.1-    081006 J47  0.2+  0.0+    081006 J47  0.6+  0.2+
081006 473  0.2-  0.5+    081006 J47  0.2+  0.1+    081006 A77  0.4-  0.0+
081006 046 (4.0+  1.5+)   081006 473  0.3+  0.2-    081006 A77  0.5-  0.1+
081006 046  0.3-  0.4+    081006 J47  0.3+  0.1+    081006 J47  0.7-  1.9-
081006 046  0.2+  0.3-    081006 952  0.4-  0.3-    081006 A77  0.4-  0.1+
081006 046  0.1+  0.0+    081006 143  0.4+  0.2+    081006 A77  0.7-  0.2-
081006 046  0.3+  0.1-    081006 J47  0.1-  0.1+    081006 A86 (3.5+  0.3+)
081006 620  0.0+  0.0+    081006 952  0.1+  0.3+    081006 J47  0.2+  0.0+
081006 473  0.2-  0.2+    081006 J47  0.2-  0.1-    081006 J47  0.5+  0.4+
081006 J75  0.2-  0.1+    081006 213  0.1-  0.1+    081006 A86 (6.2+  0.1+)
081006 620  0.2+  0.0-    081006 J47  0.0+  0.0-    081006 J95  0.8-  0.1-
081006 046  0.3-  0.3-    081006 213  0.3-  0.4-    081006 J47  0.7+  0.3+
081006 046  0.4+  0.6-    081006 J47  0.1+  0.1+    081006 A86  2.1+  0.5+
081006 143  0.1+  0.2-    081006 473  0.4+  0.2-    081006 J47  0.5+  0.2-
081006 046  0.4+  0.3+    081006 143  0.6+  0.1-    081006 J47  0.3+  0.2+
081006 046  0.2+  0.2+    081006 952  0.8-  0.1-    081006 J47  0.1-  0.1-
081006 J75  0.6+  0.4+    081006 J47  0.2-  0.0+    081006 J47  0.1+  0.0-
081006 046  0.4+  0.2+    081006 213  0.2-  0.2-    081006 213  1.1-  0.1-
081006 046  0.3-  0.1+    081006 J47  0.1-  0.2-    081006 J47  0.6+  0.1-
081006 046  0.1-  0.4+    081006 J75  0.9+  0.3+    081006 J47  0.0+  0.2-
081006 473  0.1+  0.1+    081006 J47  0.1-  0.1-    081006 473  0.0+  0.1+
081006 213  0.6-  0.6+    081006 J47  0.3+  0.0-    081006 213  0.8-  0.5-
081006 620  0.3+  0.1+    081006 213  0.0-  0.3-    081006 J75  0.8+  0.0+
081006 213  0.5-  0.5+    081006 J75  0.5-  0.2-    081006 J75  0.5+  0.0+
081006 J75  1.1+  0.4+    081006 213  0.1+  0.7-    081006 213  1.0-  0.0-
081006 473  0.2-  0.1+    081006 J47  0.7+  0.2+    081006 J75  0.1+  0.1+
081006 046  0.6+  0.4-    081006 473  0.5+  0.3-    081006 J75  0.7+  0.1+
081006 046  0.3+  0.1-    081006 J47  0.0+  0.0-    081006 J75  0.8+  0.1+
081006 620  0.8+  0.0+    081006 J47  0.1+  0.1+    081006 473  0.4+  0.1-
081006 046  0.4+  0.1+    081006 J53  0.5+  0.2-    081006 J75  1.1+  0.1+
081006 J75  0.3+  0.3+    081006 J53  0.1+  0.2-    081006 473  0.4+  0.2-
081006 046  0.9+  0.3-    081006 J47  0.4+  0.0+    081007 213  0.9-  0.1-
081006 473  0.1-  0.1-    081006 213  0.4-  0.1-    081007 A86 (5.3+  0.1-)
081006 213  0.2-  0.2-    081006 J47  0.1+  0.1-    081007 J75  0.7+  0.2-
081006 620  0.8+  0.0+    081006 J53  0.3-  0.3-    081007 213  0.7-  0.1+
081006 143  0.6+  0.1-    081006 213  1.0-  0.2-    081007 473  0.0+  0.1-
081006 J75  0.9+  0.2+    081006 143  0.2-  0.1-    081007 J75  0.1+  0.1-
081006 620  0.2-  0.1-    081006 J47  0.4-  0.0+    081007 J53  1.2-  0.6-
081006 213  0.1-  0.1-    081006 143  0.3+  0.0+    081007 A86 (6.3+  0.3+)
081006 198  0.1+  0.2+    081006 J47  0.2+  0.1+    081007 J75  1.0+  0.1-
081006 198  0.1+  0.1+    081006 213  0.9-  0.0+    081007 J53  1.7-  0.6-
081006 198  0.8-  0.0+    081006 J47  0.0+  0.1-    081007 213  2.0-  0.2-
081006 143  0.4+  0.1-    081006 J47  0.4-  0.0-    081007 J75  0.0+  0.1+
081006 213  0.2+  0.1-    081006 213  0.2-  0.5-    081007 A77  0.5+  0.8+
081006 198  0.7+  0.0+    081006 J75  0.3-  0.0+    081007 A77  0.1+  0.7+
081006 620  0.0+  0.1+    081006 J20 (3.9-  0.7-)   081007 A77  0.6-  0.4+
081006 213  0.4-  0.8-    081006 J47  0.2-  0.2-    081007 A77  0.5+  0.4+
081006 J75  0.5+  0.2+    081006 213  0.1-  0.0-    081007 A77  0.1+  0.5+
081006 143  0.2+  0.0-    081006 473  0.1+  0.2-    081007 A77  0.7-  0.9+
081006 213  0.0-  0.0+    081006 J47  0.1+  0.0+    081007 A77  0.8+  0.4+
081006 213  0.1-  0.4-    081006 J20 (4.5-  1.0-)   081007 A77  0.6-  0.2+
081006 J47  0.2-  0.2+    081006 J47  0.2+  0.3+    081007 J53  1.5-  0.6-
081006 620  0.2-  0.0+    081006 J20 (4.7-  1.0-)   081007 A77  0.3-  0.2+
081006 J47  0.2-  0.3+    081006 213  0.3-  0.4-    081007 J53  1.4-  0.6-
081006 235  1.1+  0.2+    081006 473  0.3+  0.0-    081007 473  0.9-  0.1-
081006 J75  0.0+  0.1+    081006 J47  0.0-  0.1+    081007 A86 (5.1+  0.1-)
081006 J47  0.1+  0.5+    081006 J47  0.4+  0.1+    081007 213  1.7-  0.0+
081006 213  0.1+  0.1+    081006 J95  0.5-  0.2-    081007 473  0.1-  0.1+
081006 J47  0.1+  0.6+    081006 952  0.3-  1.3-    081007 A86 (6.3+  0.4-)
081006 143  0.4+  0.1-    081006 A77  0.4-  0.4+    081007 473  0.1-  0.0-
081006 J47  0.2-  0.2+    081006 A77  0.2-  0.4+    081007 A86 (6.4+  0.1+)
081006 J47  0.1+  0.3+    081006 J47  0.3-  0.2-    081007 J75  1.2+  0.1-
081006 J47  0.1+  0.0+    081006 A77  0.2+  0.2+    081007 J75  0.1+  0.2-
081006 143  0.4+  0.3-    081006 J95  0.6-  0.0-    081007 J75  0.0+  0.2-
081006 J47  0.2+  0.2+    081006 A77  0.0-  0.4+    081007 473  0.2-  0.1+
081006 235  1.3+  0.1-    081006 J47  0.1-  0.0-    081007 J75  1.2+  0.2-
081006 J47  0.7-  0.1-    081006 A77  0.1-  0.6+    081007 J75  0.2-  0.4-
081006 J47  0.0-  0.0-    081006 A77  0.2+  0.3+    081007 J75  0.4+  0.4-
081006 J47  0.1+  0.1-    081006 J47  0.1+  0.1+    081007 J75  0.6+  0.5-
081006 143  0.2+  0.1-    081006 A77  0.3-  0.2+    081007 A86 (6.1+  0.1+)
081006 J75  0.2+  0.2+    081006 J47  0.4+  0.2+    081007 473  0.8-  0.2+
081006 J47  0.0+  0.1+    081006 A77  0.0+  0.2+    081007 J75  0.4+  0.1-
081006 J47  0.1+  0.3+    081006 213  0.5-  0.2-    081007 J75  0.4+  0.2-
081006 204  0.2-  0.4-    081006 A77  0.3-  0.4+    081007 A86 (7.2+  0.0-)
081006 J47  0.2+  0.3+    081006 A86  1.4+  0.1-    081007 473  0.0-  0.1+
081006 204  0.0+  0.6-    081006 J47  0.1+  0.1-    081007 A86 (8.4+  0.3-)
081006 204  0.2-  0.5-    081006 473  0.1-  0.1-    081007 J75  0.3+  0.1-
081006 J47  0.1+  0.1-    081006 A77  0.1-  0.4+    081007 J75  0.2+  0.5-
081006 J47  0.4+  0.1+    081006 J47  0.4+  0.2+    081007 J75  0.2+  0.3-
081006 204  0.1-  0.3-    081006 A86  2.1+  0.2-    081007 J75  2.0+  0.3-
081006 J47  0.1-  0.2-    081006 A77  0.4-  0.3+    081007 J75  2.0+  0.3-
081006 204  0.5-  0.2-    081006 A77  0.5-  0.5+    081007 J75  1.5+  0.4-
081006 J75  0.1+  0.2+    081006 A86  2.0+  0.1+    081007 A77  0.3-  0.3+
081006 J47  0.1-  0.0+    081006 A77  0.3-  0.3+    081007 J75  1.5+  0.2-
081006 J47  0.1-  0.1+    081006 J47  0.3+  0.2+    081007 A86(10.3+  0.7-)
081006 J47  0.1-  0.3+    081006 A77  0.1-  0.3+    081007 A77  0.5-  0.5+
081006 J47  0.0+  0.1+    081006 J47  0.2+  0.1+    081007 A77  0.0-  0.4+
081006 J53  0.1+  0.1-    081006 A77  0.1-  0.2+    081007 A77  0.1-  0.3+
081006 A77  0.8-  0.1+    081006 A77  0.3-  0.3+    081007 A77  0.2+  0.5+
081006 J47  0.1+  0.1+    081006 J47  0.0+  0.0+    081007 A77  2.0-  0.4+
081006 A77  1.3-  0.1-    081006 J47  0.1+  0.1-    081007 A77  0.0-  0.0+
081006 A77  0.4-  0.0+    081006 J47  0.2+  0.0+    081007 A77  2.6-  0.6+
081006 A77  0.1-  0.4+    081006 J75  0.8+  0.0+    081007 A86 (8.7+  0.2-)

